Tracking 31027 objects as of 19-Jul-2025
HD Live streaming from Space Station
objects crossing your sky now

STARLINK-31812

Track STARLINK-31812 now!
10-day predictions
STARLINK-31812 is classified as:


NORAD ID: 59800
Int'l Code: 2024-093U
Perigee: 489.3 km
Apogee: 491.1 km
Inclination: 43.0 °
Period: 94.3 minutes
Semi major axis: 6861 km
RCS: Unknown
Launch date: May 18, 2024
Source: United States (US)
Launch site: AIR FORCE EASTERN TEST RANGE (AFETR)
Your satellite tracking list
TITAN 3C TRANSTAGE DEB
Track 1 satellite(s)




NASA's NSSDC Master Catalog

Two Line Element Set (TLE):
1 59800U 24093U   25199.40522970 -.00000774  00000-0 -18614-4 0  9999
2 59800  43.0016  92.0983 0001260 289.8196  70.2520 15.27579818 66934
Source of the keplerian elements: AFSPC